"Time","Temp","Dewpoint","Humidity","Pressure","Direction","Speed","Gust","Precip","PrecipRate"
"00:04:56","75.1","71.8","89.5","30.02","187","0","0","0.00","0.00"
"00:09:57","75.1","72","90","30.02","186","0","0","0.00","0.00"
"00:14:57","75.2","72.1","90","30.02","186","0","0","0.00","0.00"
"00:19:56","75.3","72.1","89.9","30.02","187","0","0","0.00","0.00"
"00:24:59","75.4","72","89.3","30.02","186","0","0","0.00","0.00"
"00:29:57","75.5","72","89","30.02","186","0.1","2","0.00","0.00"
"00:34:56","75.6","72.1","89","30.01","184","1.6","4","0.00","0.00"
"00:39:57","75.7","72.2","89","30.01","178","1.8","4","0.00","0.00"
"00:44:56","75.7","72.2","89","30.01","165","2.6","5","0.00","0.00"
"00:49:58","75.8","72.3","89","30.01","175","1.7","4","0.00","0.00"
"00:54:57","75.7","72.2","89","30.01","175","1.5","3.5","0.00","0.00"
"00:59:56","75.6","72.1","89","30.01","176","2.2","5","0.00","0.00"
"01:04:58","75.5","72","89","30.01","177","1.3","3.5","0.00","0.00"
"01:09:57","75.4","71.9","89","30.01","177","1.1","4","0.00","0.00"
"01:14:56","75.2","71.7","89","30.01","177","0.9","3.5","0.00","0.00"
"01:19:58","75.1","71.8","89.4","30.00","176","1.4","3.5","0.00","0.00"
"01:24:57","75","71.9","90","30.00","176","0.6","3.5","0.00","0.00"
"01:29:56","74.8","71.7","90","30.00","176","1","3.5","0.00","0.00"
"01:34:59","74.7","71.6","90","30.00","176","0.4","3.5","0.00","0.00"
"01:39:56","74.6","71.5","90","30.00","176","0","1.2","0.00","0.00"
"01:44:59","74.5","71.5","90.3","30.00","176","0","0","0.00","0.00"
"01:49:58","74.4","71.6","91","29.99","176","0","0","0.00","0.00"
"01:54:57","74.2","71.4","91","29.99","176","0","0","0.00","0.00"
"01:59:57","74","71.2","91","29.99","176","0","0","0.00","0.00"
"02:04:56","73.9","71.2","91.3","29.99","176","0.3","2.3","0.00","0.00"
"02:09:59","73.8","71.3","92","29.99","175","0.7","3.5","0.00","0.00"
"02:14:59","73.8","71.3","92","29.99","175","1.5","4","0.00","0.00"
"02:19:58","73.7","71.2","92","29.99","175","0.9","3.5","0.00","0.00"
"02:24:57","73.6","71.3","92.8","29.99","175","0.3","3.5","0.00","0.00"
"02:29:56","73.5","71.4","93","29.99","175","0","1.2","0.00","0.00"
"02:34:51","73.4","71.2","92.8","29.99","175","0.1","2","0.00","0.00"
"02:39:59","73.3","71.3","93","29.99","174","0.9","4","0.00","0.00"
"02:44:58","73.3","71.2","93","29.99","173","0.8","3.5","0.00","0.00"
"02:49:57","73.3","71.2","93","29.98","172","1.3","3.5","0.00","0.00"
"02:54:56","73.1","71","93","29.98","171","1.4","5","0.00","0.00"
"02:59:59","73.1","71","93","29.98","162","1.4","4.6","0.00","0.00"
"03:04:58","72.9","70.9","93.1","29.98","155","1.2","3.5","0.00","0.00"
"03:09:57","72.8","70.9","93.7","29.98","155","1.6","4","0.00","0.00"
"03:14:58","72.6","70.8","94","29.98","155","0.5","3.5","0.00","0.00"
"03:19:57","72.5","70.7","94","29.98","155","0.8","3.5","0.00","0.00"
"03:24:24","72.5","70.7","94","29.98","155","0.2","2.3","0.00","0.00"
"03:29:59","72.4","70.6","94","29.99","155","0.6","3.5","0.00","0.00"
"03:34:57","72.3","70.5","94","29.99","155","0","0","0.00","0.00"
"03:39:58","72.2","70.7","94.9","29.99","155","0.8","3.5","0.00","0.00"
"03:44:57","72.2","70.7","95","29.99","155","1.2","4","0.00","0.00"
"03:49:56","72.1","70.6","95","29.99","154","1.4","4","0.00","0.00"
"03:54:59","72.1","70.6","95","29.99","174","2.2","5","0.00","0.00"
"03:59:58","72","70.5","95","29.99","169","2","6","0.00","0.00"
"04:04:57","72","70.5","95","29.98","175","1.4","4","0.00","0.00"
"04:09:56","71.9","70.4","95","29.98","175","1.7","5","0.00","0.00"
"04:14:57","71.9","70.4","95","29.98","176","1.2","3.5","0.00","0.00"
"04:19:56","71.8","70.3","95","29.98","176","1.2","4","0.00","0.00"
"04:24:59","71.8","70.4","95.4","29.98","177","2","4","0.00","0.00"
"04:29:58","71.7","70.5","96","29.98","178","2","4","0.00","0.00"
"04:34:57","71.7","70.5","96","29.98","178","1.4","3.5","0.00","0.00"
"04:39:58","71.6","70.4","96","29.98","178","0.3","2.3","0.00","0.00"
"04:44:57","71.5","70.2","95.5","29.98","178","1","4","0.00","0.00"
"04:49:55","71.5","70.3","96","29.98","178","0.4","2.3","0.00","0.00"
"04:54:59","71.4","70.2","96","29.98","178","0.6","3.5","0.00","0.00"
"04:59:58","71.4","70.2","96","29.98","175","1.3","3.5","0.00","0.00"
"05:04:57","71.3","70.1","96","29.98","175","0.4","3.5","0.00","0.00"
"05:09:56","71.2","70","96","29.98","176","1.1","3.5","0.00","0.00"
"05:14:56","71.2","70","96","29.98","176","1.2","3.5","0.00","0.00"
"05:19:47","71.1","69.9","96","29.97","175","0.7","3.5","0.00","0.00"
"05:24:58","71","69.8","96","29.97","176","1.8","4","0.00","0.00"
"05:29:57","71","69.9","96","29.97","177","2.3","5","0.00","0.00"
"05:34:56","71.1","70.2","97","29.97","179","2.2","6","0.00","0.00"
"05:39:57","71.2","70.3","97","29.97","206","2.7","5","0.00","0.00"
"05:44:56","71.2","70.3","97","29.97","209","0.7","3.5","0.00","0.00"
"05:49:58","71.2","70.3","97","29.97","198","2.1","5","0.00","0.00"
"05:54:58","71.3","70.4","97","29.97","205","1.8","5","0.00","0.00"
"05:59:57","71.3","70.4","97","29.97","198","1.8","6","0.00","0.00"
"06:04:59","71.3","70.4","97","29.97","184","1.6","5.8","0.00","0.00"
"06:09:59","71.3","70.4","97","29.97","185","1","3.5","0.00","0.00"
"06:14:59","71.3","70.4","97","29.97","187","0.8","6","0.00","0.00"
"06:19:58","71.2","70.3","97","29.97","186","2","5.8","0.00","0.00"
"06:24:58","71.2","70.3","97","29.97","186","1","2.3","0.00","0.00"
"06:29:57","71.2","70.3","97","29.97","186","0.5","2.3","0.00","0.00"
"06:34:56","71.1","70.2","97","29.97","186","0","1.2","0.00","0.00"
"06:39:57","71","70.1","97","29.97","186","0","0","0.00","0.00"
"06:44:56","70.9","69.9","96.5","29.97","186","0.1","2","0.00","0.00"
"06:49:55","70.9","69.7","96","29.97","186","0.2","2.3","0.00","0.00"
"06:54:59","70.8","69.6","96","29.97","186","0.1","1.2","0.00","0.00"
"06:59:58","70.7","69.5","96","29.97","186","0","0","0.00","0.00"
"07:04:56","70.6","69.6","96.4","29.97","186","0","0","0.00","0.00"
"07:09:59","70.6","69.7","97","29.97","186","0","1","0.00","0.00"
"07:14:56","70.7","69.8","97","29.98","186","0","1.2","0.00","0.00"
"07:19:59","70.8","69.9","97","29.98","186","0.1","1.2","0.00","0.00"
"07:24:57","70.8","69.9","97","29.98","186","0.1","1.2","0.00","0.00"
"07:29:56","70.9","70","97","29.98","186","0.1","2","0.00","0.00"
"07:34:59","71.1","70.2","97","29.98","186","0.5","2.3","0.00","0.00"
"07:39:59","71.1","70.2","97","29.98","186","0.2","1.2","0.00","0.00"
"07:44:58","71.2","70.3","97","29.98","186","0.1","1.2","0.00","0.00"
"07:49:57","71.3","70.4","97","29.98","186","0.4","1.2","0.00","0.00"
"07:54:59","71.5","70.6","97","29.98","186","0","1.2","0.00","0.00"
"07:59:59","71.8","70.9","97","29.98","186","0","0","0.00","0.00"
"08:04:57","72.1","71.1","96.8","29.98","186","0","0","0.00","0.00"
"08:09:57","72.4","71.5","97","29.98","186","0","1","0.00","0.00"
"08:14:57","72.8","71.7","96.2","29.98","186","0.5","2.3","0.00","0.00"
"08:19:56","73.1","71.6","95","29.98","186","0","1.2","0.00","0.00"
"08:24:59","73.3","71.7","94.7","29.98","186","0","1","0.00","0.00"
"08:29:57","73.5","71.8","94.2","29.98","186","0.2","1.2","0.00","0.00"
"08:34:56","73.6","71.8","94","29.98","186","0","1.2","0.00","0.00"
"08:39:56","73.8","71.7","93.2","29.98","186","0.1","1.2","0.00","0.00"
"08:44:59","74","71.7","92.8","29.98","186","0.6","2.3","0.00","0.00"
"08:49:58","74.3","72","92.4","29.98","186","0.1","2.3","0.00","0.00"
"08:54:56","74.7","71.9","91.1","29.98","186","0.6","2.3","0.00","0.00"
"08:59:59","75.1","72.2","90.6","29.98","186","0.7","2.3","0.00","0.00"
"09:04:57","75.5","72.4","90.1","29.98","186","0.2","2.3","0.00","0.00"
"09:09:56","76","72.7","89.4","29.98","186","0.5","3","0.00","0.00"
"09:14:57","76.6","72.7","87.8","29.98","186","1.3","3.5","0.00","0.00"
"09:19:59","77.1","72.6","86.3","29.98","186","1","3.5","0.00","0.00"
"09:24:58","77.6","73","85.9","29.98","187","0.9","4","0.00","0.00"
"09:29:56","78.1","73.3","85.2","29.98","187","0.9","4","0.00","0.00"
"09:34:59","78.6","73.5","84.3","29.98","187","0.9","3.5","0.00","0.00"
"09:39:57","79.1","73.4","82.7","29.98","187","0.5","3","0.00","0.00"
"09:44:57","79.6","73.6","82","29.98","263","1.3","4","0.00","0.00"
"09:49:57","80","73.7","81.1","29.98","334","1.9","5","0.00","0.00"
"09:54:57","80.4","73.5","79.5","29.98","53","1.5","4","0.00","0.00"
"09:59:57","80.9","73.1","77.4","29.99","64","2.3","5","0.00","0.00"
"10:04:56","81.3","73.3","76.6","29.99","60","1.8","4","0.00","0.00"
"10:09:57","81.9","73.4","75.3","29.99","38","1","5","0.00","0.00"
"10:14:58","82.5","73","73.2","29.99","309","0.2","4.6","0.00","0.00"
"10:19:58","82.9","72.7","71.3","29.99","341","2.1","6","0.00","0.00"
"10:24:57","83.1","72.3","70","29.99","227","2.3","5","0.00","0.00"
"10:29:57","83.4","72","68.8","29.99","205","2.5","5","0.00","0.00"
"10:34:57","83.5","71.7","67.5","29.98","297","1.9","5","0.00","0.00"
"10:39:59","83.8","71.5","66.7","29.98","300","1.9","6","0.00","0.00"
"10:44:59","84","70.7","64.6","29.98","288","2.8","6","0.00","0.00"
"10:49:58","84.1","71.5","66","29.98","297","1.8","5","0.00","0.00"
"10:54:58","84.2","72.1","67","29.98","308","1.8","5","0.00","0.00"
"10:59:50","84.6","71.8","65.5","29.98","230","2","5","0.00","0.00"
"11:04:57","84.6","70.9","63.6","29.98","229","2.5","5","0.00","0.00"
"11:09:58","84.9","71.5","64.3","29.98","336","2","5","0.00","0.00"
"11:14:59","85.3","71","62.5","29.98","238","3.1","7","0.00","0.00"
"11:19:59","85.6","70.9","61.7","29.98","235","2.7","6","0.00","0.00"
"11:24:58","85.8","70.9","61.2","29.98","272","2.9","6","0.00","0.00"
"11:29:58","86.1","70.4","59.6","29.98","306","3","9.2","0.00","0.00"
"11:34:58","85.9","69.8","58.9","29.98","288","2.4","5.8","0.00","0.00"
"11:39:59","86.1","69.7","58.4","29.98","322","3.5","9.2","0.00","0.00"
"11:44:59","86.2","68.9","56.4","29.98","337","3.5","11.5","0.00","0.00"
"11:49:59","86.2","68.4","55.5","29.98","301","3.1","11.5","0.00","0.00"
"11:54:59","86","68.5","56","29.98","288","2","9.2","0.00","0.00"
"11:59:59","86.2","69.2","57.1","29.98","333","3.9","13","0.00","0.00"
"12:04:58","86.4","68.4","55.2","29.98","311","3.4","7","0.00","0.00"
"12:09:58","86.4","69.5","57.1","29.98","330","2.4","6.9","0.00","0.00"
"12:14:56","86.8","70.4","58.2","29.98","294","2.4","7","0.00","0.00"
"12:19:59","87.3","70.1","56.9","29.98","241","2.9","5","0.00","0.00"
"12:24:59","87.5","70.5","57.3","29.98","218","3.7","9.2","0.00","0.00"
"12:29:59","87.4","69.8","56","29.98","306","3.9","10.4","0.00","0.00"
"12:34:58","87.2","70.1","57","29.97","265","2.3","7","0.00","0.00"
"12:39:56","87.1","70.2","57.3","29.97","355","3.3","11","0.00","0.00"
"12:44:56","86.4","68.5","55.5","29.97","298","2.8","11.5","0.00","0.00"
"12:49:56","85.9","67.7","54.8","29.97","261","2.5","7","0.00","0.00"
"12:54:56","86.3","68.7","56","29.97","265","2.2","7","0.00","0.00"
"12:59:59","87.1","68.8","54.8","29.97","276","3.1","9","0.00","0.00"
"13:04:59","87.5","69.6","55.4","29.96","210","3","9.2","0.00","0.00"
"13:09:59","88","70.7","56.7","29.96","203","2.4","7","0.00","0.00"
"13:14:56","88.8","69.7","53.5","29.96","272","3.3","9","0.00","0.00"
"13:19:56","89","69.5","52.7","29.96","208","3.2","9.2","0.00","0.00"
"13:24:56","89","68.4","50.8","29.96","292","2.6","6.9","0.00","0.00"
"13:29:56","88.4","68.5","51.9","29.96","268","2.5","5.8","0.00","0.00"
"13:34:56","87.6","68.7","53.7","29.96","328","2.9","9","0.00","0.00"
"13:39:57","86.9","68.9","55.2","29.96","345","2.7","9.2","0.00","0.00"
"13:44:57","86.7","68.7","55.3","29.96","278","1.8","6","0.00","0.00"
"13:49:57","86.8","69.8","57.1","29.95","268","2.4","6","0.00","0.00"
"13:54:57","86.9","70.2","57.8","29.95","332","2.7","7","0.00","0.00"
"13:59:57","87.3","71.3","59.1","29.95","339","2.1","6","0.00","0.00"
"14:04:56","87.9","70.1","55.7","29.95","315","3","6","0.00","0.00"
"14:09:56","88.1","69.9","55","29.95","269","1.5","5.8","0.00","0.00"
"14:14:58","88.5","70.9","56.3","29.95","346","2.3","6","0.00","0.00"
"14:19:58","89","70.1","53.7","29.95","0","1","3.5","0.00","0.00"
"14:24:58","89.3","70.9","54.9","29.95","338","2.4","5","0.00","0.00"
"14:29:57","89.6","70.2","53","29.95","223","2.4","6","0.00","0.00"
"14:34:57","89.7","70.3","53.1","29.94","327","2.1","6","0.00","0.00"
"14:39:59","89.8","70.1","52.4","29.94","347","2","8","0.00","0.00"
"14:44:59","89.8","69.6","51.7","29.94","221","3.8","8.1","0.00","0.00"
"14:49:59","89.7","70.1","52.6","29.94","251","2.6","6","0.00","0.00"
"14:54:59","89.9","69.7","51.6","29.94","331","3.2","10.4","0.00","0.00"
"14:59:59","89.5","69.5","51.8","29.94","317","2.7","8.1","0.00","0.00"
"15:04:59","89.7","69.7","52","29.93","297","3","12","0.00","0.00"
"15:09:59","88.9","68.4","50.9","29.93","308","2.6","7","0.00","0.00"
"15:14:56","88.3","68.8","52.6","29.93","293","2.5","7","0.00","0.00"
"15:19:56","88","68.8","53.1","29.93","304","1.1","3.5","0.00","0.00"
"15:24:56","88.1","69.7","54.5","29.93","293","2.2","5","0.00","0.00"
"15:29:56","88.8","69.7","53.5","29.93","201","3.8","10.4","0.00","0.00"
"15:34:56","89.4","70.4","53.8","29.92","343","2.4","8.1","0.00","0.00"
"15:39:58","90","70.1","52.2","29.92","315","2.1","6","0.00","0.00"
"15:44:58","90.6","70.4","51.7","29.92","269","1.8","7","0.00","0.00"
"15:49:57","91","69.8","49.8","29.92","262","3.2","10.4","0.00","0.00"
"15:54:58","91.4","70.3","50.4","29.92","211","2","5","0.00","0.00"
"15:59:57","91.3","69","48.2","29.92","274","3","9.2","0.00","0.00"
"16:04:56","91.2","69.1","48.4","29.91","196","3.7","8.1","0.00","0.00"
"16:09:57","90.9","68.3","47.6","29.91","219","4.3","8.1","0.00","0.00"
"16:14:58","90.3","68.5","48.9","29.91","239","2.7","8.1","0.00","0.00"
"16:19:58","90.1","67.9","48.2","29.91","247","2.9","8.1","0.00","0.00"
"16:24:58","89.7","69.4","51.5","29.91","338","2.3","7","0.00","0.00"
"16:29:58","89.9","68.6","49.6","29.91","327","3.2","9","0.00","0.00"
"16:34:58","90.1","68.8","49.7","29.90","322","2.1","9.2","0.00","0.00"
"16:39:59","90.3","69.1","50","29.90","183","3.4","6","0.00","0.00"
"16:44:59","90.3","68.9","49.5","29.90","192","3","6","0.00","0.00"
"16:49:59","89.8","68.7","50","29.90","184","2.9","6","0.00","0.00"
"16:54:59","89.8","68.9","50.4","29.90","184","3","6","0.00","0.00"
"16:59:58","90","69.3","50.8","29.91","186","1","3.5","0.00","0.00"
"17:04:58","90.4","69.3","50.2","29.91","199","1.3","6","0.00","0.00"
"17:09:58","90.6","69.2","49.6","29.91","227","2.3","5","0.00","0.00"
"17:14:56","90.7","68.8","48.9","29.91","188","4.9","10.4","0.00","0.00"
"17:19:56","90.3","69.1","50","29.91","203","2.8","6","0.00","0.00"
"17:24:56","90.2","69.5","50.8","29.91","217","2.9","5","0.00","0.00"
"17:29:56","90.2","69.4","50.6","29.91","215","2","4.6","0.00","0.00"
"17:34:56","90.2","69.6","50.9","29.91","214","1.9","5","0.00","0.00"
"17:39:58","90.2","69.2","50.3","29.91","214","0.7","4.6","0.00","0.00"
"17:44:58","90.3","69.5","50.6","29.91","208","1.4","5","0.00","0.00"
"17:49:58","90.3","68.8","49.6","29.91","229","3.1","6","0.00","0.00"
"17:54:58","90.1","69.5","50.9","29.91","212","1.6","4","0.00","0.00"
"17:59:58","90.1","68.9","49.9","29.91","182","2.8","7","0.00","0.00"
"18:04:57","90","69.3","50.7","29.91","180","2.7","6","0.00","0.00"
"18:09:58","89.8","68.7","50","29.91","195","2.4","5.8","0.00","0.00"
"18:14:59","89.6","68.4","49.8","29.91","238","2.5","7","0.00","0.00"
"18:19:59","89.4","68.7","50.6","29.90","209","2.3","5","0.00","0.00"
"18:24:59","89.2","69.1","51.7","29.90","199","1.5","4","0.00","0.00"
"18:29:59","88.9","68.8","51.7","29.90","185","2.6","5","0.00","0.00"
"18:34:59","88.5","68.7","52.2","29.90","183","0.8","3.5","0.00","0.00"
"18:39:56","88.2","68.5","52.3","29.90","183","0.9","3.5","0.00","0.00"
"18:44:57","87.9","68.8","53.2","29.90","183","1.2","4","0.00","0.00"
"18:49:57","87.7","68.7","53.4","29.90","182","1.3","3.5","0.00","0.00"
"18:54:57","87.5","68.5","53.4","29.90","182","0.9","3","0.00","0.00"
"18:59:57","87.2","68.3","53.6","29.90","183","1.3","3.5","0.00","0.00"
"19:04:56","87","68.8","54.8","29.90","183","0.9","2.3","0.00","0.00"
"19:09:57","86.7","68.8","55.3","29.90","183","0.7","3.5","0.00","0.00"
"19:14:58","86.4","69.1","56.5","29.91","183","1.2","3.5","0.00","0.00"
"19:19:58","86.1","69.2","57.3","29.91","183","0.9","3.5","0.00","0.00"
"19:24:58","85.6","69.8","59.4","29.91","183","0.6","2.3","0.00","0.00"
"19:29:59","85.1","69.4","59.5","29.92","183","1.3","4","0.00","0.00"
"19:34:56","84.6","69.3","60.3","29.92","184","0.8","3","0.00","0.00"
"19:39:58","84.2","69.6","61.6","29.92","184","0.4","2.3","0.00","0.00"
"19:44:58","83.8","69.7","62.7","29.92","184","0.6","2.3","0.00","0.00"
"19:49:59","83.3","69.5","63.2","29.92","184","0.4","2.3","0.00","0.00"
"19:54:59","82.9","69.8","64.7","29.92","184","0.2","1.2","0.00","0.00"
"19:59:56","82.3","69.4","65.1","29.92","184","0","0","0.00","0.00"
"20:04:56","81.6","69.5","66.8","29.92","184","0","0","0.00","0.00"
"20:09:57","80.9","69.7","69","29.92","184","0.1","1.2","0.00","0.00"
"20:14:59","80.1","69.8","70.9","29.92","184","0.2","2.3","0.00","0.00"
"20:19:56","79.5","69.7","71.9","29.92","184","0","1.2","0.00","0.00"
"20:24:57","79.1","69.5","72.5","29.92","184","0.2","1.2","0.00","0.00"
"20:29:56","78.6","69.6","74","29.92","184","0","1.2","0.00","0.00"
"20:34:59","78.3","69","73.3","29.92","184","0.1","1.2","0.00","0.00"
"20:39:56","78.1","69.1","74.1","29.92","184","0","0","0.00","0.00"
"20:44:56","77.9","69.3","75","29.94","184","0","0","0.00","0.00"
"20:49:59","77.7","69.5","76","29.94","184","0","0","0.00","0.00"
"20:54:58","77.6","69.5","76.4","29.94","184","0","0","0.00","0.00"
"20:59:58","77.5","69.8","77.3","29.94","184","0","0","0.00","0.00"
"21:04:56","77.3","69.9","78","29.94","184","0","0","0.00","0.00"
"21:09:56","76.8","69.4","78","29.94","184","0.1","1.2","0.00","0.00"
"21:14:56","76.5","69.1","78","29.95","184","0.7","1.2","0.00","0.00"
"21:19:56","76.4","69.4","78.9","29.95","184","0.2","1.2","0.00","0.00"
"21:24:59","76.4","69.4","79","29.95","184","0","0","0.00","0.00"
"21:29:58","76.5","69.8","79.8","29.95","184","0","1.2","0.00","0.00"
"21:34:57","76.7","69.7","79","29.95","184","0","0","0.00","0.00"
"21:39:58","76.5","69.5","79","29.95","184","0","0","0.00","0.00"
"21:44:57","76.2","69.3","79.3","29.95","184","0","0","0.00","0.00"
"21:49:57","75.9","69.3","80","29.95","184","0","0","0.00","0.00"
"21:54:56","75.7","69.5","80.9","29.95","184","0","0","0.00","0.00"
"21:59:59","75.6","69.5","81.6","29.95","184","0.3","2.3","0.00","0.00"
"22:04:57","75.5","69.7","82.2","29.95","184","1.1","2.3","0.00","0.00"
"22:09:20","75.5","70","83","29.95","184","1","2.3","0.00","0.00"
"22:14:57","75.4","69.9","83","29.95","184","0.1","2.3","0.00","0.00"
"22:19:56","75.3","69.9","83.2","29.95","184","0","0","0.00","0.00"
"22:24:56","75.3","70.1","84","29.95","184","0","0","0.00","0.00"
"22:29:59","75.2","70","84","29.96","184","0.4","2.3","0.00","0.00"
"22:34:58","75.2","70","84","29.96","184","1","2.3","0.00","0.00"
"22:39:59","75.2","70","84","29.96","184","0.4","2.3","0.00","0.00"
"22:44:58","75.2","70","84","29.96","184","0.3","1.2","0.00","0.00"
"22:49:58","75.2","70","84","29.96","184","0","1.2","0.00","0.00"
"22:54:57","75.2","70","84","29.96","184","0","1.2","0.00","0.00"
"22:59:56","75.1","70.1","84.4","29.96","184","0","0","0.00","0.00"
"23:04:59","75","70.2","85","29.96","184","0.1","1.2","0.00","0.00"
"23:09:58","74.8","70","85","29.96","184","0","0","0.00","0.00"
"23:14:59","74.7","70","85.2","29.96","184","0","1.2","0.00","0.00"
"23:19:58","74.6","70.1","86","29.96","184","0.1","1.2","0.00","0.00"
"23:24:57","74.6","70.1","86","29.96","184","0.1","2.3","0.00","0.00"
"23:29:56","74.5","70","86","29.96","184","0","1.2","0.00","0.00"
"23:34:59","74.3","69.9","86.4","29.96","184","0.1","1.2","0.00","0.00"
"23:39:56","74.2","70.1","87","29.96","184","0.2","2","0.00","0.00"
"23:44:56","74.3","70.2","87","29.97","184","0.5","3.5","0.00","0.00"
